Regional Weather Roundup
Issued by NWS Goodland, KS

Home | Current Version | Previous Version | Graphics & Text | Print | Product List | Glossary On
Versions: 1 2 3 4 5 6 7 8 9 10 11 12 13 14 15 16 17 18 19 20 21 22 23 24 25 26 27 28 29 30 31 32 33 34 35 36 37 38 39 40 41 42 43 44 45 46 47 48 49 50
000
ASUS43 KGLD 221308
RWRGLD

GOODLAND FORECAST AREA HOURLY WEATHER ROUNDUP
NATIONAL WEATHER SERVICE GOODLAND KS
700 AM MDT WED MAR 22 2017

...OFFICIAL OBSERVATIONS...

CITY           SKY/WX    TMP DP  RH WIND       PRES   REMARKS
GOODLAND KS    CLOUDY    37  31  78 SE16      30.19F
HILL CITY KS   CLOUDY    37  27  67 E5        30.28S
IMPERIAL NEB   CLOUDY    35  23  61 SE15      30.21S
MCCOOK NEB     CLOUDY    36  26  67 SE13      30.26S
AKRON CO       CLOUDY    33  23  66 S20       30.10F
BURLINGTON CO  CLOUDY    39  32  76 SE18      30.17S
LIMON CO       CLOUDY    35  26  69 S16       30.14F
$$

...UNOFFICIAL OBSERVATIONS...

CITY           SKY/WX    TMP DP  RH WIND       PRES   REMARKS
LENORA KS        N/A     35  32  89 CALM        N/A
NORTON KS      CLOUDY    36  21  55 E8        30.27
SHARON SPRINGS   N/A     39  33  79 SE8G15      N/A
TRENTON NEB      N/A     35  32  89 SE7         N/A
KIT CARSON CO    N/A     39  28  66 MISG        N/A
YUMA CO        MOCLDY    34  32  93 SE10      30.13F
$$




USA.gov is the U.S. government's official web portal to all federal, state and local government web resources and services.